Simultaneous Nadir Overpasses (SNOs) Predictions

Prediction of SNOs between GOES-14 and AQUA Satellite Orbit:

Table of predicted SNOs for the next 14.0 days since TLE Epoch: 5/29/2020
Index Date Time (GOES-14) GOES-14 Lat,Lon AQUA Lat,Lon Distance(km) Time Diff (sec)
1 05/31/2020 20:18:00 -0.03,-104.29 0.68,-101.01 373.91 80
2 06/01/2020 08:39:15 -0.00,-104.15 0.43,-106.16 228.88 80
3 06/03/2020 08:29:44 -0.00,-104.15 -0.20,-103.20 107.96 80
4 06/03/2020 20:48:30 0.03,-104.31 -0.81,-108.42 465.80 80
5 06/05/2020 08:17:33 -0.00,-104.16 -0.84,-100.25 444.77 80
6 06/05/2020 20:36:18 0.03,-104.32 -0.23,-105.45 129.22 80
7 06/07/2020 20:26:47 0.03,-104.32 0.42,-102.50 207.46 80
8 06/08/2020 08:45:22 -0.05,-104.16 0.71,-107.65 397.04 80
9 06/10/2020 08:33:11 -0.05,-104.17 0.06,-104.70 59.78 80
10 06/12/2020 08:23:40 -0.04,-104.18 -0.59,-101.74 277.76 80




NCC Satellite Simultaneous Nadir Overpasses (SNOs) Prediction Service
